Dewpoint
71 70 70 69 69 69 71 69 59 60 60 54 54 55 54 61 61 59 59 59 57 60 60 58 56 55 56 54 53 60 59 54 55 52 49 62 68 69 70 72 71 71 71 72 73 73 73 75 75 75 76 76 76 76 76 76 76 76 76 76 76 76 76 76 76 76 76 75 75 75 75 75 75 75 75 75 75 75 75 74 74 74 74 74 74 74 75 76 75 74 73 73 74 74 74 75 75
70 70 68 69 68 68 63 67 59 58 56 53 54 57 57 60 60 58 57 59 57 57 59 56 55 59 61 59 59 57 58 63 62 62 65 66 68 69 69 72 71 71 71 72 72 72 72 75 75 75 76 76 76 76 76 76 76 76 76 76 76 75 76 76 77 76 75 75 75 75 74 74 75 75 74 74 74 74 75 75 74 74 74 74 75 75 75 75 76 75 74 73 72 73 73 74 76
70 68 67 68 68 68 66 66 55 56 52 51 54 57 61 57 58 59 60 61 58 58 57 55 58 60 59 58 56 58 56 63 62 63 64 67 66 68 70 72 71 71 71 71 71 72 72 74 74 75 76 76 76 76 76 76 76 76 75 75 75 75 76 77 77 76 76 75 74 75 75 75 74 74 74 74 75 75 75 75 75 75 74 74 74 75 75 75 75 75 74 74 74 73 73 75 75
69 68 67 67 64 68 62 60 57 56 53 53 54 58 59 58 58 60 61 62 59 58 56 55 57 62 59 57 59 60 61 61 62 63 64 65 66 68 70 71 73 71 71 71 71 72 74 74 74 74 75 76 76 76 76 76 76 75 75 75 76 76 76 77 77 76 75 75 74 74 75 75 75 74 74 74 74 74 75 75 75 74 74 74 74 75 75 75 76 76 75 74 75 74 74 75 76
68 69 68 68 65 62 61 58 57 58 54 56 52 58 59 59 60 62 62 61 58 58 56 55 58 63 65 64 62 59 59 63 63 64 63 66 68 69 71 72 72 71 72 71 71 72 74 74 74 74 75 75 76 76 76 76 75 76 75 75 75 75 75 76 75 75 75 75 75 75 74 75 75 74 74 74 74 74 74 74 74 74 75 75 75 75 75 75 75 76 75 75 75 75 74 75 75
68 68 69 69 63 66 63 58 56 54 59 61 56 57 59 60 62 61 61 60 61 59 57 56 58 59 60 61 62 60 62 59 63 64 65 67 68 70 71 72 71 72 72 71 71 73 73 74 74 74 75 76 76 76 76 76 76 76 75 75 75 75 74 75 75 75 74 74 75 75 74 74 74 74 74 74 74 75 74 74 74 74 75 74 75 75 75 75 75 75 75 75 75 75 75 75 75
67 67 68 68 67 67 57 56 57 55 59 63 59 59 60 61 62 61 59 59 60 60 59 59 60 60 59 62 62 64 65 64 63 64 67 68 69 70 71 71 71 72 72 72 73 73 73 74 74 75 75 76 76 76 76 76 76 75 75 75 75 75 74 75 75 75 75 74 74 74 74 74 74 74 74 73 74 74 74 74 75 74 75 75 75 75 74 74 75 75 75 75 74 74 75 75 75
70 66 65 60 60 61 58 57 56 58 59 64 63 60 62 63 63 60 59 58 58 58 58 59 59 61 61 62 60 65 65 65 66 67 68 68 69 70 70 71 70 71 72 73 73 74 75 75 75 75 75 75 76 76 75 74 75 75 76 75 75 75 75 75 75 75 75 74 74 74 74 74 74 74 74 73 74 75 74 74 74 74 74 74 75 75 75 75 75 75 75 75 75 75 74 75 75
67 66 69 63 58 60 57 57 57 62 61 63 63 65 65 65 64 61 60 59 59 59 59 58 60 57 61 61 62 66 66 67 68 69 68 68 69 69 70 70 70 70 72 73 73 74 74 75 75 75 75 75 76 76 75 75 74 75 75 75 75 74 75 75 75 75 74 74 74 74 74 74 74 74 74 73 74 74 74 73 74 74 75 74 74 74 74 74 75 75 75 75 75 74 74 75 75
65 65 61 60 59 55 56 56 56 60 61 64 63 64 65 65 63 62 60 59 59 59 60 61 61 61 61 60 61 63 65 67 68 68 68 68 69 70 70 70 70 70 71 72 73 73 74 76 75 75 75 75 76 75 74 75 75 74 74 74 74 74 75 74 74 74 74 74 74 74 74 74 74 74 73 73 73 73 74 74 74 74 74 74 74 74 74 75 75 75 75 75 74 74 75 75 75
62 65 67 59 56 55 55 55 57 59 62 63 64 66 66 65 62 61 62 61 60 60 60 60 60 59 60 62 64 67 67 67 66 66 68 68 69 69 69 71 71 71 71 72 73 73 74 74 75 75 75 75 75 75 74 74 74 74 73 73 74 74 74 74 74 74 74 74 74 74 74 74 73 74 73 73 74 73 73 74 74 75 74 75 74 74 75 75 75 75 75 75 74 75 75 75 75
60 61 63 57 56 55 56 56 58 60 62 63 63 65 66 65 62 61 61 60 60 59 59 59 60 61 59 60 62 66 66 66 66 67 68 68 69 70 70 70 71 71 72 72 72 73 72 74 75 75 76 76 75 74 74 74 74 73 72 73 73 73 73 73 73 74 74 74 74 74 74 74 74 74 73 73 73 72 74 74 74 74 75 74 74 74 74 74 75 75 75 75 75 75 75 75 74
62 63 60 57 56 57 58 58 59 58 60 62 63 65 67 63 61 62 63 61 61 59 60 62 62 60 57 59 64 65 65 66 67 68 68 68 69 69 70 70 71 72 72 73 72 72 73 73 73 75 75 75 74 74 74 74 73 73 72 72 73 73 74 74 74 74 74 74 74 74 74 74 74 74 74 73 73 73 73 74 74 75 75 75 74 74 74 74 75 74 74 74 75 74 74 74 75
62 63 61 56 59 58 57 57 60 57 59 63 65 66 66 64 63 63 61 61 60 60 61 61 60 61 61 61 64 62 64 67 67 68 69 69 69 69 69 70 71 71 72 72 72 73 73 73 74 75 76 76 76 75 74 74 73 73 72 73 73 74 74 74 74 74 74 74 74 74 75 74 74 74 73 73 73 74 73 73 74 74 74 74 74 74 74 75 75 74 74 75 75 75 75 74 74
60 66 62 59 57 57 59 56 58 58 59 64 65 65 65 66 64 63 62 60 62 63 62 62 61 58 57 58 59 60 64 66 67 68 69 69 69 69 70 70 71 71 71 72 72 72 73 74 74 75 76 75 76 76 76 74 73 73 73 73 73 73 73 74 74 74 74 75 74 75 74 74 74 73 74 73 73 73 74 73 73 74 74 75 75 75 75 75 75 74 75 75 74 74 74 74 74
62 62 63 58 56 56 56 58 60 58 59 65 66 66 64 64 64 62 63 64 61 62 60 58 61 59 60 59 59 63 65 67 68 68 69 69 69 69 70 70 70 71 72 72 71 73 73 74 74 74 75 75 75 74 76 74 73 74 73 73 73 73 73 74 74 74 74 74 74 74 74 74 74 73 74 73 73 73 73 73 74 74 74 75 75 75 74 75 75 75 74 74 74 74 74 75 75
64 63 59 59 55 56 59 59 60 57 62 64 66 65 62 62 66 66 66 64 60 60 60 60 60 60 61 61 64 65 66 68 69 68 68 68 68 68 69 69 70 71 71 72 72 73 72 74 74 74 74 75 75 74 74 76 74 73 74 73 73 73 74 74 74 74 74 74 74 75 75 75 75 74 74 73 73 73 73 74 74 74 74 75 75 75 75 74 75 74 74 74 75 74 74 75 74
65 60 57 56 58 59 60 59 61 64 62 63 64 64 63 62 63 63 62 62 62 61 61 62 63 62 64 65 66 66 67 68 68 67 66 66 67 66 67 68 68 69 70 70 72 72 73 73 74 74 74 74 74 74 74 75 76 74 73 73 73 74 74 74 74 75 75 75 74 76 76 75 75 76 75 73 74 73 73 74 75 74 75 75 75 75 74 75 74 74 75 74 75 75 75 75 75
59 58 58 55 59 60 63 63 64 64 62 64 64 65 63 63 62 63 61 60 60 60 61 61 62 64 65 66 65 66 67 67 66 66 65 65 65 65 66 68 68 68 69 69 71 72 73 73 73 73 74 74 74 74 73 74 76 75 73 73 73 74 75 74 74 75 76 76 76 76 76 74 74 75 75 75 74 74 74 74 75 75 75 75 75 74 74 74 74 75 75 75 75 75 75 76 75
58 58 56 58 62 63 65 65 64 65 64 63 64 64 64 63 63 65 60 59 60 59 59 60 60 61 62 64 65 66 66 66 66 66 65 65 65 64 65 66 67 68 68 69 70 72 72 72 73 74 74 74 74 74 73 74 75 76 76 74 74 75 75 75 75 75 75 75 75 75 75 76 76 76 74 74 74 75 74 75 75 74 75 75 75 74 74 74 75 75 75 74 74 73 75 74 74
59 58 56 59 63 63 64 66 65 64 65 64 64 65 64 64 64 63 61 59 59 60 59 59 59 61 62 63 64 65 65 65 66 65 65 65 65 64 65 66 66 68 69 70 71 71 72 72 72 73 74 74 74 73 73 73 74 74 75 74 74 75 75 75 74 74 75 75 75 75 74 76 75 75 76 75 75 76 76 75 76 75 75 75 75 75 75 75 74 74 74 74 74 74 74 74 74
59 57 58 59 63 62 66 66 65 63 65 65 64 62 63 65 63 62 60 57 57 59 60 60 61 62 63 63 64 65 65 65 65 65 65 65 64 65 65 66 68 68 70 69 70 71 71 71 73 73 73 74 73 73 73 74 74 73 74 74 75 75 75 75 74 74 73 74 75 74 74 75 75 75 76 75 75 75 75 74 74 74 74 74 75 74 74 74 73 73 73 73 73 73 73 74 73
56 58 59 60 62 63 65 64 65 64 64 63 63 65 64 63 62 63 61 61 62 61 61 62 63 63 63 64 64 65 65 65 65 65 65 65 65 65 65 66 67 68 69 69 70 70 71 71 73 73 72 73 73 74 73 73 73 74 74 74 74 75 75 74 73 73 73 74 75 75 74 73 74 74 74 75 75 74 73 73 73 73 74 73 74 72 73 73 72 72 72 72 72 72 72 73 73
55 54 60 63 63 63 66 64 66 64 64 64 66 65 63 62 60 62 61 63 63 63 63 64 63 63 64 64 64 64 64 65 64 65 65 65 65 65 66 66 67 68 69 69 69 70 71 71 73 73 73 73 73 74 73 73 73 73 75 75 75 75 74 74 73 72 74 74 75 75 74 73 73 72 73 73 73 73 72 73 73 72 72 72 74 73 72 71 71 72 72 72 71 72 70 72 72
53 53 62 65 65 66 65 63 66 66 66 66 65 63 63 63 61 61 62 62 62 63 63 64 63 63 63 64 64 65 65 65 65 66 65 66 66 66 66 67 67 68 68 69 70 70 71 72 72 72 72 73 73 73 72 72 72 73 74 74 75 75 74 74 73 74 74 75 75 75 75 73 73 73 73 73 72 72 73 73 71 71 72 72 72 71 72 72 72 71 72 72 72 71 70 71 71
53 56 63 64 64 66 65 65 66 66 66 65 63 63 64 65 63 63 63 64 64 63 63 63 64 63 63 64 64 64 65 65 65 65 65 66 66 66 66 66 67 67 68 69 69 70 71 71 71 72 72 72 73 72 73 72 72 72 73 73 75 74 73 74 74 74 74 74 74 75 74 74 73 72 72 72 72 73 72 72 72 72 72 72 71 72 73 72 73 73 73 73 71 72 70 70 70
53 62 63 63 65 65 66 65 66 66 65 65 63 62 63 64 64 59 65 63 63 64 63 63 63 63 63 64 64 65 65 65 65 65 65 65 65 65 66 67 67 67 69 69 69 70 72 71 71 72 73 74 73 72 72 72 72 72 73 74 73 73 74 74 74 74 74 74 74 75 75 75 73 73 72 73 73 72 73 73 72 73 72 73 73 73 74 75 75 74 75 73 73 72 71 71 70
61 63 64 64 65 66 66 66 66 65 64 66 63 63 64 64 62 60 63 63 65 64 62 62 62 63 63 64 64 65 65 65 66 65 65 65 65 65 65 66 66 67 68 69 70 71 70 70 71 72 72 73 74 72 72 72 72 71 72 73 73 74 74 74 74 74 74 74 74 75 75 74 74 74 75 74 73 73 73 73 73 73 73 74 74 74 75 76 75 75 76 77 77 75 72 72 72
62 61 60 62 64 63 65 64 65 66 63 66 64 61 60 60 61 64 63 63 64 63 62 62 62 63 63 64 64 65 65 66 66 65 65 65 65 64 64 66 66 68 68 69 70 71 70 71 71 72 72 73 73 72 72 72 71 71 71 72 72 73 74 73 73 73 74 74 74 75 75 75 75 74 75 75 74 73 73 73 73 74 74 74 75 76 76 76 74 74 75 76 75 74 72 71 71
61 60 60 60 60 61 63 64 65 65 65 66 63 56 57 60 63 64 63 63 63 62 62 61 62 62 63 63 64 64 65 65 65 65 65 65 65 64 65 66 67 67 69 70 70 70 71 71 71 71 72 72 73 72 73 72 72 72 72 72 73 74 74 73 73 74 74 74 74 75 74 75 75 75 75 76 74 73 73 74 73 73 74 75 76 76 74 74 73 73 73 72 73 72 69 69 69
57 59 59 57 55 58 62 63 64 63 65 66 65 56 58 61 63 64 63 64 61 61 61 61 61 62 62 63 63 63 65 65 65 65 65 66 65 65 65 66 68 68 70 70 70 71 71 71 71 71 72 72 73 73 73 72 72 72 72 72 73 73 73 73 73 74 74 74 74 74 75 75 75 76 76 76 74 74 72 72 72 73 74 75 74 76 74 74 74 73 73 71 70 69 68 71 70
59 55 52 55 53 58 61 63 63 61 63 65 63 57 58 60 62 63 64 63 63 61 61 60 61 62 62 63 63 63 64 64 65 65 65 65 65 65 65 67 67 68 69 71 71 71 71 71 72 71 71 72 73 73 73 73 73 73 72 72 73 74 73 72 73 73 72 74 74 74 75 75 75 76 76 77 75 74 72 71 73 74 75 75 75 75 75 73 74 73 74 73 71 68 70 68 70
56 53 52 52 53 56 58 61 61 63 62 63 63 58 59 59 62 64 64 63 63 62 61 61 61 61 62 63 63 63 63 64 64 64 65 65 66 66 66 67 68 69 69 71 71 71 71 71 72 71 71 71 72 72 74 74 74 74 73 73 73 74 72 73 74 73 73 73 74 73 75 75 76 76 77 77 77 74 73 73 72 74 75 75 75 74 73 74 73 69 75 76 75 74 67 64 68
54 52 52 53 52 56 55 60 62 63 62 60 62 60 60 60 63 62 63 63 63 60 60 61 61 61 62 63 62 62 63 63 63 64 65 66 66 67 67 69 69 70 71 71 71 71 71 71 71 72 73 71 72 73 73 73 73 74 74 73 74 73 72 73 73 72 73 72 74 74 75 75 76 76 77 77 77 75 75 73 73 74 75 75 75 74 73 73 74 72 74 76 75 74 70 68 67
50 51 52 52 55 55 55 56 59 62 62 60 60 60 61 61 63 62 62 63 62 61 60 61 60 61 62 62 62 62 63 63 63 64 65 65 66 67 68 69 70 71 71 71 72 72 72 72 72 72 73 72 72 73 74 74 74 74 73 73 73 73 73 73 73 71 72 73 73 74 76 75 76 76 76 77 77 75 74 74 74 75 75 75 75 73 73 74 73 74 73 75 76 75 74 72 71
52 52 51 52 51 53 55 58 61 61 60 59 59 59 60 61 62 62 64 62 62 61 61 61 60 60 62 61 61 62 62 62 63 64 64 65 66 67 68 69 70 71 71 72 72 72 72 72 72 72 73 71 72 73 73 73 73 72 71 72 72 72 72 72 72 71 73 72 73 73 75 75 76 76 76 77 77 76 74 74 75 75 75 74 74 72 72 73 75 75 75 74 74 74 74 73 71
53 52 52 52 52 54 57 60 61 62 60 60 60 60 61 61 61 62 63 63 61 61 61 61 61 61 60 60 61 62 62 61 63 63 64 65 66 67 68 70 70 71 72 72 71 71 72 71 72 72 72 73 72 72 72 72 71 72 71 70 68 70 71 72 71 71 73 72 74 74 76 74 76 76 77 77 77 76 75 75 75 75 75 75 75 74 74 74 76 76 76 77 73 72 70 70 71
51 51 50 52 51 52 57 58 61 63 60 58 60 59 60 61 61 62 63 63 59 59 60 61 61 61 61 61 60 61 62 62 62 63 63 64 66 67 68 69 71 70 72 72 71 71 72 71 72 72 72 72 72 72 72 72 72 71 70 70 68 69 70 71 71 72 72 72 75 76 75 75 76 76 77 77 77 76 75 74 75 75 75 75 76 76 76 75 75 75 75 75 75 73 71 69 69
47 49 50 50 54 58 58 60 61 61 60 58 59 58 60 60 60 62 61 62 60 59 60 61 61 61 61 60 60 61 60 61 60 61 62 63 65 67 68 69 70 70 71 71 72 72 71 72 73 73 72 72 72 72 72 72 73 73 71 71 71 71 72 73 72 73 73 73 74 75 75 76 76 76 77 77 76 76 75 75 74 75 75 76 75 75 75 74 75 75 75 74 71 74 72 72 73
31 41 46 47 55 52 53 58 59 59 59 58 58 58 59 61 62 62 63 62 62 66 64 62 62 61 61 60 60 60 60 61 60 60 60 62 65 67 68 69 70 70 71 71 71 72 71 72 73 73 73 73 72 72 73 73 73 73 74 73 73 72 72 73 74 74 74 74 73 74 75 76 76 76 76 75 75 75 75 74 74 74 76 76 75 75 74 73 75 75 74 74 74 69 67 69 71
27 41 43 52 54 52 54 56 57 59 60 59 59 58 57 60 60 60 62 64 64 64 64 64 63 62 62 62 61 61 60 61 60 60 61 62 65 66 68 69 69 69 70 71 71 71 71 72 73 74 74 74 74 74 74 74 74 73 73 73 73 74 73 73 72 72 73 74 73 74 74 76 76 76 76 76 75 75 75 75 75 75 75 76 76 75 75 72 74 74 75 75 74 72 68 68 70
25 26 38 48 55 54 57 57 56 56 56 58 57 52 52 58 60 58 61 62 62 63 62 62 62 61 61 61 60 61 62 61 61 60 61 62 64 66 68 69 68 69 70 70 70 70 71 73 74 74 74 74 74 75 75 74 74 72 72 71 70 71 71 71 71 71 71 71 69 72 74 74 74 75 76 76 75 75 75 75 75 75 74 75 75 74 74 74 75 74 75 74 74 75 74 70 67
26 37 27 46 55 56 56 56 54 52 51 54 57 52 50 57 58 59 61 61 61 63 62 62 63 64 61 60 60 59 59 59 59 60 61 61 64 66 67 68 68 68 69 70 70 71 72 73 74 74 74 74 74 75 75 74 74 73 73 71 71 71 71 72 73 72 72 72 73 73 73 75 76 74 75 76 75 76 76 76 76 75 74 75 76 76 75 73 73 74 75 75 74 77 76 73 70
27 28 17 50 55 55 55 55 51 52 55 56 56 54 52 51 57 60 61 59 60 61 62 62 62 63 62 60 59 60 58 58 58 60 61 62 64 65 66 67 67 67 69 69 70 70 73 74 74 74 74 74 74 75 74 75 74 74 74 73 72 72 70 72 73 73 73 74 73 73 73 73 75 75 74 76 76 76 76 77 76 75 74 74 75 75 74 73 75 76 77 77 77 77 76 74 72
26 34 36 53 54 55 55 52 50 52 52 52 55 54 50 51 56 61 61 58 59 60 61 62 62 62 62 61 59 59 58 58 58 58 60 62 64 64 66 67 67 67 68 69 70 71 72 73 74 74 74 75 75 75 74 74 74 74 74 72 73 73 73 73 73 74 74 74 74 74 74 73 74 75 75 74 76 76 76 76 77 76 75 75 76 74 74 74 75 75 76 76 76 76 76 75 76
53 53 53 54 55 55 54 51 51 53 50 49 52 53 48 49 56 57 58 58 57 59 61 62 61 62 62 61 60 60 59 58 57 58 60 62 63 64 65 66 67 67 68 69 70 71 72 73 74 74 74 74 75 75 75 75 74 75 74 74 74 74 74 74 73 73 74 74 74 74 74 74 73 73 74 75 76 76 76 76 75 75 75 73 74 74 75 75 75 75 75 75 76 76 77 75 75
52 50 50 51 51 52 52 52 52 52 46 47 51 52 49 45 52 55 55 56 58 60 62 63 64 62 63 63 62 61 59 57 57 58 59 62 63 64 65 66 67 67 68 69 69 70 71 72 73 74 74 74 75 75 75 75 74 74 74 75 74 74 74 74 73 74 74 74 74 74 74 74 74 73 72 74 75 74 75 76 74 74 75 75 76 75 74 73 72 73 74 76 77 76 76 76 75
47 46 48 48 50 51 51 51 52 47 43 45 51 51 50 44 50 54 57 58 58 59 61 62 63 63 62 64 63 62 60 57 57 58 58 61 64 65 66 66 67 68 68 68 69 70 71 72 73 74 74 75 75 75 75 74 74 74 74 75 75 75 75 74 73 73 74 74 74 74 74 74 75 74 74 73 73 72 75 76 76 75 76 76 75 75 75 74 73 74 74 76 76 77 77 76 75
45 47 41 39 47 48 44 48 44 43 42 45 49 52 49 48 51 54 55 57 57 59 59 60 63 63 63 64 64 65 63 58 59 60 60 61 63 64 65 67 68 69 68 69 69 69 71 72 73 73 74 74 75 75 74 75 74 74 74 75 75 76 75 75 75 74 74 74 74 74 74 74 75 74 74 73 73 74 75 76 76 76 76 76 77 76 76 76 76 74 75 75 76 76 75 75 74
44 41 38 35 44 42 40 42 44 42 42 49 48 52 48 49 52 55 56 57 57 58 59 60 62 64 65 64 64 66 66 60 59 59 61 62 63 63 65 66 67 68 68 68 69 70 71 71 73 73 74 74 75 75 74 75 75 75 75 75 75 75 75 75 74 74 74 75 75 75 74 73 74 74 74 75 74 74 75 76 76 76 77 77 77 77 77 76 77 75 75 75 74 76 76 75 75
41 41 32 32 37 35 38 40 39 38 44 48 52 48 45 45 54 58 59 61 62 60 58 61 63 65 66 66 66 67 68 63 60 59 60 61 63 64 65 66 67 67 67 67 68 70 72 71 73 73 74 74 75 75 75 74 74 75 75 75 75 75 74 74 74 74 75 75 74 74 75 74 73 74 74 75 76 76 76 77 77 76 77 77 77 77 76 76 77 77 77 76 76 76 76 75 74
43 44 37 32 31 42 34 41 41 44 44 45 49 48 51 52 56 59 62 61 61 62 61 61 63 65 66 67 66 66 66 65 59 59 61 62 64 65 65 65 66 67 68 67 68 70 70 71 73 73 73 73 74 75 74 74 74 74 75 75 75 75 75 74 75 75 75 75 75 75 76 76 75 75 76 76 76 76 77 77 77 76 77 76 77 77 77 75 77 76 77 77 76 74 76 76 74
42 44 34 31 44 37 46 45 47 46 42 46 49 47 50 54 55 57 60 60 60 62 62 62 62 64 65 66 67 67 67 66 63 59 60 62 63 64 64 66 65 66 67 67 69 70 71 72 72 72 73 73 73 74 74 74 75 74 75 75 74 75 74 74 72 73 72 74 75 75 74 74 75 77 75 76 76 77 77 77 76 76 77 77 77 77 76 77 78 76 75 77 76 74 77 76 74
40 38 39 37 40 42 41 37 45 42 38 46 47 45 46 48 49 58 60 58 59 60 61 61 62 64 64 65 67 68 68 67 67 63 62 62 62 64 64 64 65 65 66 67 70 69 71 71 71 72 72 72 72 73 72 73 74 74 74 74 75 74 73 72 72 73 73 74 75 75 74 75 75 74 75 73 76 76 77 77 77 76 76 76 76 76 76 77 77 76 76 77 75 77 76 76 76
37 34 41 31 36 35 46 44 40 40 37 43 46 46 46 48 50 57 57 56 57 60 62 61 61 62 64 65 67 68 69 68 67 65 63 62 62 63 65 65 64 65 67 67 68 68 69 70 70 70 71 71 71 70 72 73 73 72 72 73 74 74 73 73 73 74 75 74 72 73 73 74 74 76 76 77 77 75 76 76 77 76 76 77 77 76 77 77 77 76 76 75 76 78 77 76 77
32 43 41 26 35 36 41 39 43 39 39 39 45 45 45 51 52 54 56 56 57 58 61 61 61 62 64 65 66 67 68 68 69 68 65 63 62 63 65 65 64 65 66 67 68 67 67 68 70 70 70 71 71 71 72 72 72 72 72 73 75 75 75 74 74 75 73 73 74 73 74 73 74 74 75 76 75 75 75 74 74 74 73 74 75 75 75 76 77 77 75 73 74 77 76 76 75
31 36 39 30 31 33 40 41 42 40 41 38 40 40 45 51 55 56 57 57 58 58 59 62 62 62 64 66 67 67 68 68 69 69 69 67 66 64 65 65 65 66 66 67 67 68 68 68 69 70 70 70 70 70 71 72 72 72 73 73 72 74 73 73 73 74 73 74 74 74 73 73 75 75 75 74 75 76 76 75 74 75 73 75 76 75 76 77 77 77 77 77 76 77 76 75 76
28 31 36 32 32 37 35 37 42 43 40 38 37 34 48 50 57 58 59 58 58 59 60 61 62 63 63 65 67 68 68 68 69 70 69 69 70 69 66 65 66 67 67 67 67 67 69 68 68 69 71 71 72 71 72 72 72 72 72 72 72 72 73 73 72 73 72 73 73 74 75 75 74 75 75 74 75 74 75 75 74 75 76 75 76 77 75 75 76 76 76 74 75 77 77 76 76